Weather History for KNFE - August, 2014

Change the Weather History Date:

Wednesday, August 20, 2014

  Actual Average (KORF) Record (KORF)
Temperature  
Mean Temperature 83 °F 78 °F  
Max Temperature 91 °F 85 °F 100 °F (1983)
Min Temperature 75 °F 71 °F 61 °F (1953)
Degree Days  
Heating Degree Days 0 0  
Month to date heating degree days 0  
Since 1 June heating degree days 6  
Since 1 July heating degree days 0  
Cooling Degree Days 18 13  
Month to date cooling degree days 270  
Year to date cooling degree days 1205  
Since 1 June cooling degree days 1039  
Growing Degree Days 33 (Base 50)    
Moisture  
Dew Point 70 °F    
Average Humidity 69    
Maximum Humidity 87    
Minimum Humidity 45    
Precipitation  
Precipitation 0.00 in 0.17 in 3.29 in (1888)
Month to date precipitation 3.69  
Year to date precipitation 30.11  
Snow  
Snow 0.00 in 0.00 in 0.00 in (2002)
Month to date snowfall 0.0  
Since 1 July snowfall 0.0  
Snow Depth -    
Sea Level Pressure  
Sea Level Pressure 29.94 in    
Wind  
Wind Speed 5 mph (NNE)    
Max Wind Speed 8 mph    
Max Gust Speed -    
Visibility 10 miles    
Events Rain    
T = Trace of Precipitation, MM = Missing Value Source: NWS Daily Summary

Daily Weather History Graph

Daily Weather History Graph

Search for Another Location

Airport or City:

Trip Planner

Search our weather history database for the weather conditions in past years. The results will help you decide how hot, cold, wet, or windy it might be!

Date:

Astronomy

Aug. 20, 2014 Rise Set
Actual Time 6:25 AM EDT 7:49 PM EDT
Civil Twilight 5:58 AM EDT 8:16 PM EDT
Nautical Twilight 5:26 AM EDT 8:48 PM EDT
Astronomical Twilight 4:52 AM EDT 9:22 PM EDT
Moon 2:06 AM EDT (8/20) 4:29 PM EDT (8/20)
Length of Visible Light 14h 17m
Length of Day
13h 23m
Waning Crescent, 21% of the Moon is Illuminated
Aug 20
Waning Crescent
Aug 25
New
Sep 2
First Quarter
Sep 8
Full
Sep 15
Last Quarter

Hourly Weather History & Observations

Time (EDT) Temp. Heat Index Dew Point Humidity Pressure Visibility Wind Dir Wind Speed Gust Speed Precip Events Conditions
12:56 AM 78.1 °F - 72.0 °F 81% 29.89 in 10.0 mi North 5.8 mph - N/A   Overcast
1:14 AM 78.1 °F - 72.0 °F 81% 29.88 in 8.0 mi North 3.5 mph - 0.00 in Rain Light Rain
1:56 AM 78.1 °F - 73.0 °F 84% 29.88 in 10.0 mi North 4.6 mph - 0.00 in   Overcast
2:33 AM 77.0 °F - 72.0 °F 84% 29.86 in 10.0 mi North 3.5 mph - N/A   Scattered Clouds
2:56 AM 77.0 °F - 72.0 °F 84% 29.88 in 10.0 mi Calm Calm - N/A   Clear
3:56 AM 75.9 °F - 71.1 °F 85% 29.88 in 10.0 mi North 3.5 mph - N/A   Clear
4:56 AM 75.9 °F - 72.0 °F 87% 29.89 in 10.0 mi Calm Calm - N/A   Overcast
5:56 AM 75.9 °F - 71.1 °F 85% 29.91 in 10.0 mi NNE 4.6 mph - N/A   Overcast
6:56 AM 77.0 °F - 71.1 °F 82% 29.93 in 10.0 mi North 4.6 mph - N/A   Overcast
8:56 AM 80.1 °F 82.9 °F 69.1 °F 69% 29.97 in 10.0 mi NNE 6.9 mph - N/A   Mostly Cloudy
9:05 AM 80.1 °F 82.9 °F 69.1 °F 69% 29.96 in 10.0 mi NNE 4.6 mph - N/A   Mostly Cloudy
9:56 AM 82.9 °F 85.8 °F 68.0 °F 60% 29.98 in 10.0 mi NNE 8.1 mph - N/A   Mostly Cloudy
10:08 AM 82.0 °F 85.5 °F 69.1 °F 65% 29.98 in 10.0 mi NNE 5.8 mph - N/A   Scattered Clouds
10:56 AM 86.0 °F 89.4 °F 68.0 °F 55% 29.99 in 10.0 mi East 6.9 mph - N/A   Scattered Clouds
11:56 AM 87.1 °F 89.2 °F 66.0 °F 49% 30.00 in 10.0 mi North 5.8 mph - N/A   Mostly Cloudy
12:56 PM 88.0 °F 90.3 °F 66.0 °F 48% 29.99 in 10.0 mi NE 6.9 mph - N/A   Mostly Cloudy
1:56 PM 91.0 °F 94.3 °F 66.9 °F 45% 29.99 in 10.0 mi NNE 4.6 mph - N/A   Mostly Cloudy
2:56 PM 87.1 °F 89.9 °F 66.9 °F 51% 29.97 in 10.0 mi ENE 5.8 mph - N/A   Scattered Clouds
4:56 PM 86.0 °F 89.4 °F 68.0 °F 55% 29.98 in 10.0 mi East 5.8 mph - N/A   Clear
11:56 PM 75.0 °F - 69.1 °F 82% 30.03 in 10.0 mi Calm Calm - N/A   Clear